Hourly Weather Dhaka

Today, 26 September, Saturday

Time Temperature Precipitation Wind Pressure Humidity
00:00 +29°C° 0 mm 4 mps 751 mmHg 87%
01:00 +29°C° 1.1 mm 3 mps 751 mmHg 88%
02:00 +29°C° 1.1 mm 3 mps 751 mmHg 88%
03:00 +28°C° 1.1 mm 3 mps 750 mmHg 89%
04:00 +28°C° 0.5 mm 3 mps 750 mmHg 89%
05:00 +28°C° 0.5 mm 2 mps 750 mmHg 88%
06:00 +29°C° 0 mm 3 mps 751 mmHg 87%
07:00 +30°C° 0.4 mm 3 mps 751 mmHg 82%
08:00 +31°C° 0.4 mm 3 mps 751 mmHg 77%
09:00 +33°C° 0.4 mm 4 mps 752 mmHg 72%
10:00 +34°C° 1.6 mm 4 mps 751 mmHg 69%
11:00 +35°C° 1.6 mm 4 mps 751 mmHg 67%
12:00 +36°C° 0 mm 5 mps 751 mmHg 63%
13:00 +35°C° 1.2 mm 5 mps 751 mmHg 64%
14:00 +35°C° 1.2 mm 5 mps 750 mmHg 66%
15:00 +35°C° 1.2 mm 5 mps 749 mmHg 68%
16:00 +34°C° 0.3 mm 5 mps 749 mmHg 72%
17:00 +33°C° 0.3 mm 5 mps 749 mmHg 76%
18:00 +32°C° 0.3 mm 4 mps 750 mmHg 80%
19:00 +30°C° 1.7 mm 5 mps 750 mmHg 82%
20:00 +30°C° 1.7 mm 5 mps 751 mmHg 83%
21:00 +29°C° 1.7 mm 5 mps 752 mmHg 85%
22:00 +29°C° 0.1 mm 5 mps 752 mmHg 85%
23:00 +29°C° 0.1 mm 4 mps 752 mmHg 86%

Tomorrow, 27 September, Sunday

Time Temperature Precipitation Wind Pressure Humidity
00:00 +29°C° 0.1 mm 3 mps 751 mmHg 87%
01:00 +29°C° 0 mm 3 mps 751 mmHg 88%
02:00 +29°C° 0 mm 3 mps 751 mmHg 89%
03:00 +28°C° 0 mm 3 mps 751 mmHg 90%
04:00 +28°C° 0 mm 3 mps 751 mmHg 90%
05:00 +28°C° 0 mm 3 mps 751 mmHg 90%
06:00 +28°C° 0 mm 3 mps 751 mmHg 91%
07:00 +29°C° 0.3 mm 3 mps 752 mmHg 87%
08:00 +30°C° 0.3 mm 4 mps 752 mmHg 83%
09:00 +32°C° 0.3 mm 4 mps 753 mmHg 79%
10:00 +33°C° 0.5 mm 4 mps 753 mmHg 73%
11:00 +34°C° 0.5 mm 4 mps 752 mmHg 68%
12:00 +36°C° 0.5 mm 4 mps 752 mmHg 63%
13:00 +36°C° 0.2 mm 4 mps 751 mmHg 63%
14:00 +35°C° 0.2 mm 4 mps 751 mmHg 63%
15:00 +35°C° 0.2 mm 4 mps 750 mmHg 63%
16:00 +34°C° 0.1 mm 4 mps 750 mmHg 68%
17:00 +33°C° 0.1 mm 3 mps 750 mmHg 73%
18:00 +31°C° 0.1 mm 3 mps 750 mmHg 77%
19:00 +31°C° 0.1 mm 3 mps 750 mmHg 79%
20:00 +30°C° 0.1 mm 3 mps 751 mmHg 82%
21:00 +30°C° 0.1 mm 3 mps 752 mmHg 84%
22:00 +30°C° 0.1 mm 3 mps 752 mmHg 85%
23:00 +30°C° 0.1 mm 3 mps 752 mmHg 85%

Day after tomorrow, 28 September, Monday

Time Temperature Precipitation Wind Pressure Humidity
00:00 +29°C° 0.1 mm 3 mps 752 mmHg 86%
01:00 +29°C° 1.2 mm 2 mps 752 mmHg 87%
02:00 +29°C° 1.2 mm 2 mps 751 mmHg 88%
03:00 +29°C° 1.2 mm 2 mps 751 mmHg 88%
04:00 +29°C° 1.1 mm 2 mps 751 mmHg 89%
05:00 +29°C° 1.1 mm 2 mps 752 mmHg 89%
06:00 +28°C° 1.1 mm 2 mps 752 mmHg 89%
07:00 +30°C° 0.3 mm 2 mps 752 mmHg 85%
08:00 +31°C° 0.3 mm 2 mps 753 mmHg 80%
09:00 +33°C° 0.3 mm 3 mps 753 mmHg 75%
10:00 +34°C° 0.9 mm 3 mps 753 mmHg 71%
11:00 +35°C° 0.9 mm 3 mps 752 mmHg 67%
12:00 +36°C° 0.9 mm 3 mps 752 mmHg 63%
13:00 +36°C° 1.7 mm 3 mps 751 mmHg 63%
14:00 +36°C° 1.7 mm 2 mps 750 mmHg 63%
15:00 +36°C° 1.7 mm 2 mps 749 mmHg 63%
16:00 +35°C° 0.5 mm 2 mps 750 mmHg 67%
17:00 +34°C° 0.5 mm 2 mps 750 mmHg 72%
18:00 +32°C° 0.5 mm 2 mps 750 mmHg 76%
19:00 +31°C° 0 mm 3 mps 750 mmHg 78%
20:00 +31°C° 0 mm 3 mps 751 mmHg 80%
21:00 +31°C° 0 mm 3 mps 752 mmHg 82%
22:00 +30°C° 0 mm 3 mps 752 mmHg 83%
23:00 +30°C° 0 mm 3 mps 752 mmHg 84%

29 September, Tuesday

Time Temperature Precipitation Wind Pressure Humidity
00:00 +30°C° 0 mm 3 mps 752 mmHg 85%
01:00 +29°C° 0 mm 3 mps 751 mmHg 86%
02:00 +29°C° 0 mm 3 mps 751 mmHg 86%
03:00 +29°C° 0 mm 2 mps 751 mmHg 87%
04:00 +29°C° 0.1 mm 2 mps 751 mmHg 87%
05:00 +29°C° 0.1 mm 2 mps 751 mmHg 88%
06:00 +29°C° 0.1 mm 2 mps 751 mmHg 88%
07:00 +30°C° 0.3 mm 2 mps 752 mmHg 84%
08:00 +31°C° 0.3 mm 2 mps 752 mmHg 80%
09:00 +32°C° 0.3 mm 2 mps 752 mmHg 76%
10:00 +34°C° 0.3 mm 2 mps 752 mmHg 72%
11:00 +34°C° 0.3 mm 2 mps 752 mmHg 68%
12:00 +35°C° 0.3 mm 2 mps 752 mmHg 64%
13:00 +35°C° 0.2 mm 2 mps 751 mmHg 63%
14:00 +36°C° 0.2 mm 2 mps 750 mmHg 62%
15:00 +36°C° 0.2 mm 2 mps 749 mmHg 61%
16:00 +35°C° 0 mm 2 mps 749 mmHg 65%
17:00 +34°C° 0 mm 2 mps 749 mmHg 68%
18:00 +32°C° 0 mm 2 mps 749 mmHg 72%
19:00 +32°C° 0 mm 2 mps 750 mmHg 75%
20:00 +31°C° 0 mm 2 mps 751 mmHg 77%
21:00 +31°C° 0 mm 3 mps 751 mmHg 79%
22:00 +30°C° 0.3 mm 3 mps 751 mmHg 81%
23:00 +30°C° 0.3 mm 3 mps 751 mmHg 83%

30 September, Wednesday

Time Temperature Precipitation Wind Pressure Humidity
00:00 +30°C° 0.3 mm 3 mps 751 mmHg 85%
01:00 +29°C° 3.9 mm 3 mps 751 mmHg 86%
02:00 +29°C° 3.9 mm 2 mps 750 mmHg 87%
03:00 +29°C° 3.9 mm 2 mps 750 mmHg 88%
04:00 +29°C° 0.6 mm 2 mps 750 mmHg 87%
05:00 +29°C° 0.6 mm 2 mps 751 mmHg 87%
06:00 +29°C° 0.6 mm 2 mps 751 mmHg 86%
07:00 +30°C° 0.1 mm 2 mps 751 mmHg 83%
08:00 +31°C° 0.1 mm 2 mps 752 mmHg 79%
09:00 +32°C° 0.1 mm 2 mps 752 mmHg 76%
10:00 +34°C° 0 mm 2 mps 752 mmHg 71%
11:00 +35°C° 0 mm 2 mps 751 mmHg 67%
12:00 +36°C° 0 mm 3 mps 751 mmHg 62%
13:00 +36°C° 0.4 mm 2 mps 750 mmHg 62%
14:00 +36°C° 0.4 mm 2 mps 749 mmHg 62%
15:00 +36°C° 0.4 mm 2 mps 749 mmHg 62%
16:00 +35°C° 0 mm 2 mps 749 mmHg 65%
17:00 +34°C° 0 mm 2 mps 749 mmHg 68%
18:00 +32°C° 0 mm 2 mps 749 mmHg 71%
19:00 +32°C° 0.1 mm 2 mps 749 mmHg 73%
20:00 +31°C° 0.1 mm 2 mps 750 mmHg 75%
21:00 +31°C° 0.1 mm 2 mps 750 mmHg 77%
22:00 +30°C° 0.1 mm 2 mps 750 mmHg 80%
23:00 +30°C° 0.1 mm 2 mps 750 mmHg 83%

1 October, Thursday

Time Temperature Precipitation Wind Pressure Humidity
00:00 +30°C° 0.1 mm 2 mps 750 mmHg 85%
01:00 +30°C° 1.8 mm 2 mps 750 mmHg 86%
02:00 +29°C° 1.8 mm 2 mps 750 mmHg 87%
03:00 +29°C° 1.8 mm 2 mps 749 mmHg 87%
04:00 +29°C° 0.9 mm 1 mps 750 mmHg 88%
05:00 +29°C° 0.9 mm 1 mps 750 mmHg 88%
06:00 +29°C° 0.9 mm 1 mps 750 mmHg 89%
07:00 +30°C° 0 mm 1 mps 750 mmHg 83%
08:00 +31°C° 0 mm 1 mps 751 mmHg 77%
09:00 +34°C° 0 mm 2 mps 751 mmHg 72%
10:00 +34°C° 0.1 mm 1 mps 751 mmHg 67%
11:00 +35°C° 0.1 mm 1 mps 750 mmHg 62%
12:00 +36°C° 0.1 mm 1 mps 750 mmHg 57%
13:00 +36°C° 0 mm 1 mps 749 mmHg 57%
14:00 +36°C° 0 mm 1 mps 748 mmHg 57%
15:00 +36°C° 0 mm 1 mps 748 mmHg 56%
16:00 +35°C° 0.3 mm 1 mps 748 mmHg 61%
17:00 +34°C° 0.3 mm 1 mps 748 mmHg 66%
18:00 +34°C° 0.3 mm 2 mps 748 mmHg 70%
19:00 +32°C° 0.4 mm 2 mps 748 mmHg 72%
20:00 +32°C° 0.4 mm 2 mps 749 mmHg 74%
21:00 +31°C° 0.4 mm 2 mps 749 mmHg 76%
22:00 +31°C° 0.1 mm 2 mps 749 mmHg 77%
23:00 +31°C° 0.1 mm 2 mps 749 mmHg 77%
Show more